<?xml version="1.0" encoding="UTF-8" standalone="no" ?>
<gpx xmlns="http://www.topografix.com/GPX/1/1" xmlns:xsi="http://www.w3.org/2001/XMLSchema-instance" xsi:schemaLocation="http://www.topografix.com/GPX/1/1 http://www.topografix.com/GPX/1/1/gpx.xsd" version="1.1" creator="VisuGPX - https://www.visugpx.com">
  <metadata>
    <name>CP trace 1</name>
  </metadata>
  <trk>
    <name><![CDATA[trace nmr 1]]></name>
    <trkseg>
      <trkpt lat="47.08301" lon="6.62344">
        <ele>951.4</ele>
        <time>2019-08-21T19:45:37Z</time>
      </trkpt>
      <trkpt lat="47.08278" lon="6.62281">
        <ele>957.9</ele>
        <time>2019-08-21T19:45:57Z</time>
      </trkpt>
      <trkpt lat="47.08276" lon="6.62272">
        <ele>958.8</ele>
        <time>2019-08-21T19:46:00Z</time>
      </trkpt>
      <trkpt lat="47.0827" lon="6.62249">
        <ele>960.6</ele>
        <time>2019-08-21T19:46:08Z</time>
      </trkpt>
      <trkpt lat="47.08258" lon="6.6222">
        <ele>962.6</ele>
        <time>2019-08-21T19:46:20Z</time>
      </trkpt>
      <trkpt lat="47.08254" lon="6.62205">
        <ele>963.7</ele>
        <time>2019-08-21T19:46:25Z</time>
      </trkpt>
      <trkpt lat="47.08253" lon="6.622">
        <ele>964</ele>
        <time>2019-08-21T19:46:27Z</time>
      </trkpt>
      <trkpt lat="47.08252" lon="6.62198">
        <ele>964.1</ele>
        <time>2019-08-21T19:46:28Z</time>
      </trkpt>
      <trkpt lat="47.0825" lon="6.62194">
        <ele>964.4</ele>
        <time>2019-08-21T19:46:30Z</time>
      </trkpt>
      <trkpt lat="47.08249" lon="6.62189">
        <ele>964.7</ele>
        <time>2019-08-21T19:46:32Z</time>
      </trkpt>
      <trkpt lat="47.08247" lon="6.6218">
        <ele>965.3</ele>
        <time>2019-08-21T19:46:35Z</time>
      </trkpt>
      <trkpt lat="47.08246" lon="6.62177">
        <ele>965.5</ele>
        <time>2019-08-21T19:46:36Z</time>
      </trkpt>
      <trkpt lat="47.08239" lon="6.62159">
        <ele>967</ele>
        <time>2019-08-21T19:46:43Z</time>
      </trkpt>
      <trkpt lat="47.08231" lon="6.62138">
        <ele>968.5</ele>
        <time>2019-08-21T19:46:51Z</time>
      </trkpt>
      <trkpt lat="47.08209" lon="6.62071">
        <ele>973.1</ele>
        <time>2019-08-21T19:47:16Z</time>
      </trkpt>
      <trkpt lat="47.08207" lon="6.62066">
        <ele>973.4</ele>
        <time>2019-08-21T19:47:18Z</time>
      </trkpt>
      <trkpt lat="47.08203" lon="6.62054">
        <ele>973.9</ele>
        <time>2019-08-21T19:47:22Z</time>
      </trkpt>
      <trkpt lat="47.08172" lon="6.61982">
        <ele>978.1</ele>
        <time>2019-08-21T19:47:49Z</time>
      </trkpt>
      <trkpt lat="47.08154" lon="6.61947">
        <ele>980.6</ele>
        <time>2019-08-21T19:48:02Z</time>
      </trkpt>
      <trkpt lat="47.08114" lon="6.61857">
        <ele>986.1</ele>
        <time>2019-08-21T19:48:36Z</time>
      </trkpt>
      <trkpt lat="47.08097" lon="6.61794">
        <ele>988.8</ele>
        <time>2019-08-21T19:48:57Z</time>
      </trkpt>
      <trkpt lat="47.0809" lon="6.61774">
        <ele>988.4</ele>
        <time>2019-08-21T19:49:32Z</time>
      </trkpt>
      <trkpt lat="47.08086" lon="6.61752">
        <ele>995.3</ele>
        <time>2019-08-21T19:50:06Z</time>
      </trkpt>
      <trkpt lat="47.08076" lon="6.61698">
        <ele>995.2</ele>
        <time>2019-08-21T19:50:27Z</time>
      </trkpt>
      <trkpt lat="47.0806" lon="6.6162">
        <ele>1004</ele>
        <time>2019-08-21T19:50:40Z</time>
      </trkpt>
      <trkpt lat="47.08042" lon="6.61577">
        <ele>1007.1</ele>
        <time>2019-08-21T19:51:02Z</time>
      </trkpt>
      <trkpt lat="47.08022" lon="6.61551">
        <ele>1010.8</ele>
        <time>2019-08-21T19:51:08Z</time>
      </trkpt>
      <trkpt lat="47.07969" lon="6.61472">
        <ele>1016.5</ele>
        <time>2019-08-21T19:51:16Z</time>
      </trkpt>
      <trkpt lat="47.07939" lon="6.61421">
        <ele>1019.2</ele>
        <time>2019-08-21T19:51:20Z</time>
      </trkpt>
      <trkpt lat="47.0791" lon="6.614">
        <ele>1015.6</ele>
        <time>2019-08-21T19:51:22Z</time>
      </trkpt>
      <trkpt lat="47.07899" lon="6.6139">
        <ele>1015.1</ele>
        <time>2019-08-21T19:51:29Z</time>
      </trkpt>
      <trkpt lat="47.07894" lon="6.61386">
        <ele>1015.1</ele>
        <time>2019-08-21T19:51:40Z</time>
      </trkpt>
      <trkpt lat="47.07877" lon="6.61378">
        <ele>1014.1</ele>
        <time>2019-08-21T19:51:59Z</time>
      </trkpt>
      <trkpt lat="47.07849" lon="6.61374">
        <ele>1012.6</ele>
        <time>2019-08-21T19:52:16Z</time>
      </trkpt>
      <trkpt lat="47.07806" lon="6.61326">
        <ele>1018.6</ele>
        <time>2019-08-21T19:52:42Z</time>
      </trkpt>
      <trkpt lat="47.07769" lon="6.61292">
        <ele>1022.8</ele>
        <time>2019-08-21T19:52:46Z</time>
      </trkpt>
      <trkpt lat="47.07729" lon="6.61251">
        <ele>1032.6</ele>
        <time>2019-08-21T19:52:48Z</time>
      </trkpt>
      <trkpt lat="47.07722" lon="6.61244">
        <ele>1032.5</ele>
        <time>2019-08-21T19:52:50Z</time>
      </trkpt>
      <trkpt lat="47.07717" lon="6.6124">
        <ele>1033.5</ele>
        <time>2019-08-21T19:52:58Z</time>
      </trkpt>
      <trkpt lat="47.07711" lon="6.61235">
        <ele>1035.4</ele>
        <time>2019-08-21T19:53:07Z</time>
      </trkpt>
      <trkpt lat="47.07677" lon="6.61215">
        <ele>1034.7</ele>
        <time>2019-08-21T19:53:13Z</time>
      </trkpt>
      <trkpt lat="47.07619" lon="6.61201">
        <ele>1027.5</ele>
        <time>2019-08-21T19:53:14Z</time>
      </trkpt>
      <trkpt lat="47.07587" lon="6.61195">
        <ele>1020.1</ele>
        <time>2019-08-21T19:53:22Z</time>
      </trkpt>
      <trkpt lat="47.07584" lon="6.61193">
        <ele>1019.2</ele>
        <time>2019-08-21T19:53:37Z</time>
      </trkpt>
      <trkpt lat="47.07562" lon="6.61176">
        <ele>1018.9</ele>
        <time>2019-08-21T19:53:53Z</time>
      </trkpt>
      <trkpt lat="47.0752" lon="6.61132">
        <ele>1020</ele>
        <time>2019-08-21T19:54:06Z</time>
      </trkpt>
      <trkpt lat="47.07501" lon="6.6111">
        <ele>1020.4</ele>
        <time>2019-08-21T19:54:13Z</time>
      </trkpt>
      <trkpt lat="47.07488" lon="6.6108">
        <ele>1021.4</ele>
        <time>2019-08-21T19:54:22Z</time>
      </trkpt>
      <trkpt lat="47.07474" lon="6.61044">
        <ele>1022.8</ele>
        <time>2019-08-21T19:54:28Z</time>
      </trkpt>
      <trkpt lat="47.07469" lon="6.61031">
        <ele>1024.1</ele>
        <time>2019-08-21T19:54:49Z</time>
      </trkpt>
      <trkpt lat="47.07462" lon="6.61016">
        <ele>1024.6</ele>
        <time>2019-08-21T19:55:04Z</time>
      </trkpt>
      <trkpt lat="47.07458" lon="6.61007">
        <ele>1025.4</ele>
        <time>2019-08-21T19:55:15Z</time>
      </trkpt>
      <trkpt lat="47.07442" lon="6.60974">
        <ele>1028.7</ele>
        <time>2019-08-21T19:55:20Z</time>
      </trkpt>
      <trkpt lat="47.0743" lon="6.60948">
        <ele>1031.9</ele>
        <time>2019-08-21T19:55:44Z</time>
      </trkpt>
      <trkpt lat="47.07429" lon="6.60944">
        <ele>1032.2</ele>
        <time>2019-08-21T19:55:59Z</time>
      </trkpt>
      <trkpt lat="47.07424" lon="6.60934">
        <ele>1031.9</ele>
        <time>2019-08-21T19:56:30Z</time>
      </trkpt>
      <trkpt lat="47.07401" lon="6.60882">
        <ele>1039</ele>
        <time>2019-08-21T19:57:09Z</time>
      </trkpt>
      <trkpt lat="47.07396" lon="6.60863">
        <ele>1039.3</ele>
        <time>2019-08-21T19:57:42Z</time>
      </trkpt>
      <trkpt lat="47.07387" lon="6.60846">
        <ele>1044</ele>
        <time>2019-08-21T19:57:49Z</time>
      </trkpt>
      <trkpt lat="47.07377" lon="6.60827">
        <ele>1042.5</ele>
        <time>2019-08-21T19:57:59Z</time>
      </trkpt>
      <trkpt lat="47.07358" lon="6.60819">
        <ele>1049</ele>
        <time>2019-08-21T19:58:09Z</time>
      </trkpt>
      <trkpt lat="47.0734" lon="6.60801">
        <ele>1045.7</ele>
        <time>2019-08-21T19:58:29Z</time>
      </trkpt>
      <trkpt lat="47.07332" lon="6.60782">
        <ele>1045.4</ele>
        <time>2019-08-21T19:58:31Z</time>
      </trkpt>
      <trkpt lat="47.07315" lon="6.60753">
        <ele>1044.2</ele>
        <time>2019-08-21T19:58:50Z</time>
      </trkpt>
      <trkpt lat="47.07293" lon="6.60734">
        <ele>1051.7</ele>
        <time>2019-08-21T19:58:58Z</time>
      </trkpt>
      <trkpt lat="47.0726" lon="6.60673">
        <ele>1053.9</ele>
        <time>2019-08-21T19:59:08Z</time>
      </trkpt>
      <trkpt lat="47.07255" lon="6.60664">
        <ele>1053.9</ele>
        <time>2019-08-21T19:59:14Z</time>
      </trkpt>
      <trkpt lat="47.07245" lon="6.60642">
        <ele>1054.3</ele>
        <time>2019-08-21T19:59:31Z</time>
      </trkpt>
      <trkpt lat="47.0723" lon="6.60621">
        <ele>1054.5</ele>
        <time>2019-08-21T19:59:38Z</time>
      </trkpt>
      <trkpt lat="47.07198" lon="6.60571">
        <ele>1055.8</ele>
        <time>2019-08-21T19:59:58Z</time>
      </trkpt>
      <trkpt lat="47.07195" lon="6.60565">
        <ele>1055.9</ele>
        <time>2019-08-21T20:00:13Z</time>
      </trkpt>
      <trkpt lat="47.07162" lon="6.60499">
        <ele>1054.8</ele>
        <time>2019-08-21T20:00:32Z</time>
      </trkpt>
      <trkpt lat="47.0715" lon="6.60458">
        <ele>1054</ele>
        <time>2019-08-21T20:00:48Z</time>
      </trkpt>
      <trkpt lat="47.07147" lon="6.60421">
        <ele>1059</ele>
        <time>2019-08-21T20:00:50Z</time>
      </trkpt>
      <trkpt lat="47.07143" lon="6.60404">
        <ele>1061.4</ele>
        <time>2019-08-21T20:00:57Z</time>
      </trkpt>
      <trkpt lat="47.07133" lon="6.60357">
        <ele>1068</ele>
        <time>2019-08-21T20:01:04Z</time>
      </trkpt>
      <trkpt lat="47.07128" lon="6.6034">
        <ele>1070.3</ele>
        <time>2019-08-21T20:01:12Z</time>
      </trkpt>
      <trkpt lat="47.07122" lon="6.60294">
        <ele>1076.8</ele>
        <time>2019-08-21T20:01:19Z</time>
      </trkpt>
      <trkpt lat="47.07122" lon="6.60259">
        <ele>1081.1</ele>
        <time>2019-08-21T20:01:29Z</time>
      </trkpt>
      <trkpt lat="47.07129" lon="6.60218">
        <ele>1087.1</ele>
        <time>2019-08-21T20:01:42Z</time>
      </trkpt>
      <trkpt lat="47.07135" lon="6.60193">
        <ele>1092.6</ele>
        <time>2019-08-21T20:01:50Z</time>
      </trkpt>
      <trkpt lat="47.07136" lon="6.60191">
        <ele>1092.5</ele>
        <time>2019-08-21T20:02:01Z</time>
      </trkpt>
      <trkpt lat="47.07136" lon="6.60184">
        <ele>1092.3</ele>
        <time>2019-08-21T20:02:06Z</time>
      </trkpt>
      <trkpt lat="47.07132" lon="6.60171">
        <ele>1092</ele>
        <time>2019-08-21T20:02:21Z</time>
      </trkpt>
      <trkpt lat="47.0712" lon="6.60137">
        <ele>1090.9</ele>
        <time>2019-08-21T20:02:26Z</time>
      </trkpt>
      <trkpt lat="47.07106" lon="6.60097">
        <ele>1089</ele>
        <time>2019-08-21T20:02:30Z</time>
      </trkpt>
      <trkpt lat="47.07076" lon="6.60017">
        <ele>1081.9</ele>
        <time>2019-08-21T20:02:37Z</time>
      </trkpt>
      <trkpt lat="47.07029" lon="6.5991">
        <ele>1077</ele>
        <time>2019-08-21T20:02:45Z</time>
      </trkpt>
      <trkpt lat="47.07004" lon="6.59839">
        <ele>1073.3</ele>
        <time>2019-08-21T20:02:56Z</time>
      </trkpt>
      <trkpt lat="47.06973" lon="6.59738">
        <ele>1067.4</ele>
        <time>2019-08-21T20:03:04Z</time>
      </trkpt>
      <trkpt lat="47.06956" lon="6.597">
        <ele>1062.8</ele>
        <time>2019-08-21T20:03:09Z</time>
      </trkpt>
      <trkpt lat="47.06961" lon="6.59622">
        <ele>1047.6</ele>
        <time>2019-08-21T20:03:20Z</time>
      </trkpt>
      <trkpt lat="47.06966" lon="6.59601">
        <ele>1042.6</ele>
        <time>2019-08-21T20:03:26Z</time>
      </trkpt>
      <trkpt lat="47.06952" lon="6.59601">
        <ele>1038.7</ele>
        <time>2019-08-21T20:03:28Z</time>
      </trkpt>
      <trkpt lat="47.06904" lon="6.59615">
        <ele>1025.2</ele>
        <time>2019-08-21T20:03:32Z</time>
      </trkpt>
      <trkpt lat="47.06852" lon="6.59611">
        <ele>1024.5</ele>
        <time>2019-08-21T20:03:39Z</time>
      </trkpt>
      <trkpt lat="47.06798" lon="6.59568">
        <ele>1017.3</ele>
        <time>2019-08-21T20:03:45Z</time>
      </trkpt>
      <trkpt lat="47.0678" lon="6.59529">
        <ele>1014.7</ele>
        <time>2019-08-21T20:03:47Z</time>
      </trkpt>
      <trkpt lat="47.06769" lon="6.59498">
        <ele>1013.8</ele>
        <time>2019-08-21T20:03:51Z</time>
      </trkpt>
      <trkpt lat="47.06726" lon="6.59424">
        <ele>1010.1</ele>
        <time>2019-08-21T20:03:56Z</time>
      </trkpt>
      <trkpt lat="47.06711" lon="6.59428">
        <ele>1004.2</ele>
        <time>2019-08-21T20:04:05Z</time>
      </trkpt>
      <trkpt lat="47.067" lon="6.59441">
        <ele>1005.1</ele>
        <time>2019-08-21T20:04:11Z</time>
      </trkpt>
      <trkpt lat="47.06689" lon="6.59449">
        <ele>1003.1</ele>
        <time>2019-08-21T20:04:18Z</time>
      </trkpt>
      <trkpt lat="47.06661" lon="6.59448">
        <ele>997.7</ele>
        <time>2019-08-21T20:04:27Z</time>
      </trkpt>
      <trkpt lat="47.06614" lon="6.59412">
        <ele>987.8</ele>
        <time>2019-08-21T20:04:55Z</time>
      </trkpt>
      <trkpt lat="47.06598" lon="6.59366">
        <ele>981.6</ele>
        <time>2019-08-21T20:05:19Z</time>
      </trkpt>
      <trkpt lat="47.06592" lon="6.59353">
        <ele>978.5</ele>
        <time>2019-08-21T20:05:25Z</time>
      </trkpt>
      <trkpt lat="47.06575" lon="6.59345">
        <ele>974.7</ele>
        <time>2019-08-21T20:05:35Z</time>
      </trkpt>
      <trkpt lat="47.06544" lon="6.59366">
        <ele>969.9</ele>
        <time>2019-08-21T20:05:57Z</time>
      </trkpt>
      <trkpt lat="47.06476" lon="6.59398">
        <ele>959.2</ele>
        <time>2019-08-21T20:06:00Z</time>
      </trkpt>
      <trkpt lat="47.06432" lon="6.59417">
        <ele>954.6</ele>
        <time>2019-08-21T20:06:05Z</time>
      </trkpt>
      <trkpt lat="47.06371" lon="6.59445">
        <ele>946.4</ele>
        <time>2019-08-21T20:06:08Z</time>
      </trkpt>
      <trkpt lat="47.06304" lon="6.59485">
        <ele>936.6</ele>
        <time>2019-08-21T20:06:14Z</time>
      </trkpt>
      <trkpt lat="47.06354" lon="6.59589">
        <ele>940.5</ele>
        <time>2019-08-21T20:06:21Z</time>
      </trkpt>
      <trkpt lat="47.06401" lon="6.59654">
        <ele>943.1</ele>
        <time>2019-08-21T20:06:25Z</time>
      </trkpt>
      <trkpt lat="47.06413" lon="6.59668">
        <ele>943.3</ele>
        <time>2019-08-21T20:06:27Z</time>
      </trkpt>
      <trkpt lat="47.06434" lon="6.59691">
        <ele>943.5</ele>
        <time>2019-08-21T20:06:36Z</time>
      </trkpt>
      <trkpt lat="47.06487" lon="6.59761">
        <ele>942.5</ele>
        <time>2019-08-21T20:06:40Z</time>
      </trkpt>
      <trkpt lat="47.06493" lon="6.59782">
        <ele>942</ele>
        <time>2019-08-21T20:06:48Z</time>
      </trkpt>
      <trkpt lat="47.065" lon="6.59813">
        <ele>940.9</ele>
        <time>2019-08-21T20:06:57Z</time>
      </trkpt>
      <trkpt lat="47.06509" lon="6.59828">
        <ele>940.1</ele>
        <time>2019-08-21T20:07:03Z</time>
      </trkpt>
      <trkpt lat="47.065" lon="6.59848">
        <ele>938</ele>
        <time>2019-08-21T20:07:09Z</time>
      </trkpt>
      <trkpt lat="47.06458" lon="6.59874">
        <ele>929.7</ele>
        <time>2019-08-21T20:07:14Z</time>
      </trkpt>
      <trkpt lat="47.06428" lon="6.59886">
        <ele>925.6</ele>
        <time>2019-08-21T20:07:18Z</time>
      </trkpt>
      <trkpt lat="47.06417" lon="6.5989">
        <ele>924.1</ele>
        <time>2019-08-21T20:07:20Z</time>
      </trkpt>
      <trkpt lat="47.06396" lon="6.59914">
        <ele>922</ele>
        <time>2019-08-21T20:07:24Z</time>
      </trkpt>
      <trkpt lat="47.06391" lon="6.5994">
        <ele>918.3</ele>
        <time>2019-08-21T20:07:32Z</time>
      </trkpt>
      <trkpt lat="47.06369" lon="6.59956">
        <ele>913</ele>
        <time>2019-08-21T20:07:40Z</time>
      </trkpt>
      <trkpt lat="47.0636" lon="6.59977">
        <ele>909.5</ele>
        <time>2019-08-21T20:07:48Z</time>
      </trkpt>
      <trkpt lat="47.06342" lon="6.59983">
        <ele>907.3</ele>
        <time>2019-08-21T20:07:55Z</time>
      </trkpt>
      <trkpt lat="47.06332" lon="6.60003">
        <ele>904.3</ele>
        <time>2019-08-21T20:08:02Z</time>
      </trkpt>
      <trkpt lat="47.06312" lon="6.59977">
        <ele>899.2</ele>
        <time>2019-08-21T20:08:07Z</time>
      </trkpt>
      <trkpt lat="47.06301" lon="6.59941">
        <ele>895.1</ele>
        <time>2019-08-21T20:08:12Z</time>
      </trkpt>
      <trkpt lat="47.06293" lon="6.59938">
        <ele>894.2</ele>
        <time>2019-08-21T20:08:18Z</time>
      </trkpt>
      <trkpt lat="47.0627" lon="6.59952">
        <ele>892.9</ele>
        <time>2019-08-21T20:08:25Z</time>
      </trkpt>
      <trkpt lat="47.06208" lon="6.59977">
        <ele>888.4</ele>
        <time>2019-08-21T20:08:29Z</time>
      </trkpt>
      <trkpt lat="47.06141" lon="6.6">
        <ele>879</ele>
        <time>2019-08-21T20:08:33Z</time>
      </trkpt>
      <trkpt lat="47.06077" lon="6.59983">
        <ele>866.5</ele>
        <time>2019-08-21T20:08:41Z</time>
      </trkpt>
      <trkpt lat="47.06023" lon="6.5997">
        <ele>856.4</ele>
        <time>2019-08-21T20:08:44Z</time>
      </trkpt>
      <trkpt lat="47.05998" lon="6.5997">
        <ele>850.6</ele>
        <time>2019-08-21T20:08:48Z</time>
      </trkpt>
      <trkpt lat="47.05971" lon="6.59951">
        <ele>845.9</ele>
        <time>2019-08-21T20:08:52Z</time>
      </trkpt>
      <trkpt lat="47.0595" lon="6.5993">
        <ele>842.4</ele>
        <time>2019-08-21T20:09:00Z</time>
      </trkpt>
      <trkpt lat="47.05918" lon="6.59911">
        <ele>838.7</ele>
        <time>2019-08-21T20:09:02Z</time>
      </trkpt>
      <trkpt lat="47.05886" lon="6.59881">
        <ele>835.5</ele>
        <time>2019-08-21T20:09:09Z</time>
      </trkpt>
      <trkpt lat="47.05852" lon="6.59874">
        <ele>829.8</ele>
        <time>2019-08-21T20:09:23Z</time>
      </trkpt>
      <trkpt lat="47.05826" lon="6.59903">
        <ele>820.2</ele>
        <time>2019-08-21T20:10:11Z</time>
      </trkpt>
      <trkpt lat="47.05793" lon="6.59953">
        <ele>807.6</ele>
        <time>2019-08-21T20:10:18Z</time>
      </trkpt>
      <trkpt lat="47.05779" lon="6.59963">
        <ele>806.3</ele>
        <time>2019-08-21T20:10:26Z</time>
      </trkpt>
      <trkpt lat="47.05747" lon="6.5996">
        <ele>802.9</ele>
        <time>2019-08-21T20:17:42Z</time>
      </trkpt>
      <trkpt lat="47.05708" lon="6.59948">
        <ele>798.2</ele>
        <time>2019-08-21T20:17:56Z</time>
      </trkpt>
      <trkpt lat="47.05623" lon="6.5993">
        <ele>787.6</ele>
        <time>2019-08-21T20:18:03Z</time>
      </trkpt>
      <trkpt lat="47.05601" lon="6.59926">
        <ele>786.1</ele>
        <time>2019-08-21T20:18:07Z</time>
      </trkpt>
      <trkpt lat="47.05555" lon="6.59942">
        <ele>781.8</ele>
        <time>2019-08-21T20:18:19Z</time>
      </trkpt>
      <trkpt lat="47.05451" lon="6.60015">
        <ele>767.2</ele>
        <time>2019-08-21T20:18:39Z</time>
      </trkpt>
      <trkpt lat="47.05419" lon="6.60035">
        <ele>759.3</ele>
        <time>2019-08-21T20:18:45Z</time>
      </trkpt>
      <trkpt lat="47.05396" lon="6.60032">
        <ele>756.7</ele>
        <time>2019-08-21T20:18:49Z</time>
      </trkpt>
      <trkpt lat="47.05389" lon="6.60035">
        <ele>756</ele>
        <time>2019-08-21T20:19:09Z</time>
      </trkpt>
      <trkpt lat="47.05389" lon="6.60056">
        <ele>756.5</ele>
        <time>2019-08-21T20:19:22Z</time>
      </trkpt>
      <trkpt lat="47.05401" lon="6.60106">
        <ele>756.7</ele>
        <time>2019-08-21T20:19:49Z</time>
      </trkpt>
      <trkpt lat="47.0541" lon="6.60156">
        <ele>756.5</ele>
        <time>2019-08-21T20:20:38Z</time>
      </trkpt>
      <trkpt lat="47.05438" lon="6.60265">
        <ele>757.5</ele>
        <time>2019-08-21T20:20:51Z</time>
      </trkpt>
      <trkpt lat="47.05462" lon="6.60358">
        <ele>758.2</ele>
        <time>2019-08-21T20:21:02Z</time>
      </trkpt>
      <trkpt lat="47.05474" lon="6.60399">
        <ele>758.4</ele>
        <time>2019-08-21T20:21:05Z</time>
      </trkpt>
      <trkpt lat="47.05478" lon="6.60468">
        <ele>759</ele>
        <time>2019-08-21T20:21:17Z</time>
      </trkpt>
      <trkpt lat="47.05404" lon="6.60473">
        <ele>755.1</ele>
        <time>2019-08-21T20:21:29Z</time>
      </trkpt>
      <trkpt lat="47.05388" lon="6.6053">
        <ele>755.2</ele>
        <time>2019-08-21T20:21:49Z</time>
      </trkpt>
      <trkpt lat="47.05389" lon="6.6062">
        <ele>754.6</ele>
        <time>2019-08-21T20:22:23Z</time>
      </trkpt>
      <trkpt lat="47.05388" lon="6.60652">
        <ele>754.6</ele>
        <time>2019-08-21T20:22:35Z</time>
      </trkpt>
      <trkpt lat="47.05387" lon="6.60723">
        <ele>755.2</ele>
        <time>2019-08-21T20:22:42Z</time>
      </trkpt>
      <trkpt lat="47.05382" lon="6.60809">
        <ele>755.9</ele>
        <time>2019-08-21T20:22:47Z</time>
      </trkpt>
      <trkpt lat="47.0538" lon="6.60884">
        <ele>755.5</ele>
        <time>2019-08-21T20:22:49Z</time>
      </trkpt>
      <trkpt lat="47.05378" lon="6.60917">
        <ele>755.5</ele>
        <time>2019-08-21T20:23:09Z</time>
      </trkpt>
      <trkpt lat="47.05384" lon="6.60973">
        <ele>755.8</ele>
        <time>2019-08-21T20:23:20Z</time>
      </trkpt>
      <trkpt lat="47.05417" lon="6.60995">
        <ele>756</ele>
        <time>2019-08-21T20:23:54Z</time>
      </trkpt>
      <trkpt lat="47.05447" lon="6.61039">
        <ele>758.5</ele>
        <time>2019-08-21T20:24:10Z</time>
      </trkpt>
      <trkpt lat="47.05514" lon="6.6111">
        <ele>764.5</ele>
        <time>2019-08-21T20:24:30Z</time>
      </trkpt>
      <trkpt lat="47.05545" lon="6.61143">
        <ele>765.3</ele>
        <time>2019-08-21T20:24:42Z</time>
      </trkpt>
      <trkpt lat="47.05591" lon="6.61235">
        <ele>767.8</ele>
        <time>2019-08-21T20:24:48Z</time>
      </trkpt>
      <trkpt lat="47.05632" lon="6.61352">
        <ele>765.1</ele>
        <time>2019-08-21T20:25:06Z</time>
      </trkpt>
      <trkpt lat="47.05651" lon="6.61433">
        <ele>761.4</ele>
        <time>2019-08-21T20:25:31Z</time>
      </trkpt>
      <trkpt lat="47.05651" lon="6.61469">
        <ele>760.6</ele>
        <time>2019-08-21T20:25:47Z</time>
      </trkpt>
      <trkpt lat="47.0564" lon="6.61527">
        <ele>757.7</ele>
        <time>2019-08-21T20:26:01Z</time>
      </trkpt>
      <trkpt lat="47.05653" lon="6.61596">
        <ele>754.1</ele>
        <time>2019-08-21T20:26:28Z</time>
      </trkpt>
      <trkpt lat="47.05683" lon="6.61699">
        <ele>754.2</ele>
        <time>2019-08-21T20:26:50Z</time>
      </trkpt>
      <trkpt lat="47.05698" lon="6.61749">
        <ele>756.9</ele>
        <time>2019-08-21T20:27:19Z</time>
      </trkpt>
      <trkpt lat="47.05697" lon="6.61775">
        <ele>757.7</ele>
        <time>2019-08-21T20:27:37Z</time>
      </trkpt>
      <trkpt lat="47.05667" lon="6.61821">
        <ele>759.8</ele>
        <time>2019-08-21T20:27:45Z</time>
      </trkpt>
      <trkpt lat="47.05618" lon="6.61893">
        <ele>765</ele>
        <time>2019-08-21T20:28:05Z</time>
      </trkpt>
      <trkpt lat="47.05609" lon="6.61919">
        <ele>766.2</ele>
        <time>2019-08-21T20:28:14Z</time>
      </trkpt>
      <trkpt lat="47.05603" lon="6.61936">
        <ele>766.9</ele>
        <time>2019-08-21T20:28:47Z</time>
      </trkpt>
      <trkpt lat="47.05573" lon="6.62023">
        <ele>770</ele>
        <time>2019-08-21T20:28:51Z</time>
      </trkpt>
      <trkpt lat="47.05566" lon="6.62087">
        <ele>772.3</ele>
        <time>2019-08-21T20:29:07Z</time>
      </trkpt>
      <trkpt lat="47.05581" lon="6.62137">
        <ele>771.8</ele>
        <time>2019-08-21T20:29:46Z</time>
      </trkpt>
      <trkpt lat="47.0562" lon="6.62177">
        <ele>775.4</ele>
        <time>2019-08-21T20:29:54Z</time>
      </trkpt>
      <trkpt lat="47.05692" lon="6.62223">
        <ele>777.3</ele>
        <time>2019-08-21T20:30:41Z</time>
      </trkpt>
      <trkpt lat="47.05752" lon="6.62318">
        <ele>777.2</ele>
        <time>2019-08-21T20:30:42Z</time>
      </trkpt>
      <trkpt lat="47.05786" lon="6.62373">
        <ele>778.1</ele>
        <time>2019-08-21T20:30:45Z</time>
      </trkpt>
      <trkpt lat="47.05805" lon="6.62424">
        <ele>779.4</ele>
        <time>2019-08-21T20:30:53Z</time>
      </trkpt>
      <trkpt lat="47.05797" lon="6.62435">
        <ele>780.1</ele>
        <time>2019-08-21T20:31:10Z</time>
      </trkpt>
      <trkpt lat="47.05766" lon="6.62475">
        <ele>782.1</ele>
        <time>2019-08-21T20:31:27Z</time>
      </trkpt>
      <trkpt lat="47.05739" lon="6.62525">
        <ele>783.8</ele>
        <time>2019-08-21T20:31:46Z</time>
      </trkpt>
      <trkpt lat="47.05702" lon="6.62613">
        <ele>786.3</ele>
        <time>2019-08-21T20:32:07Z</time>
      </trkpt>
      <trkpt lat="47.05681" lon="6.62667">
        <ele>792</ele>
        <time>2019-08-21T20:32:40Z</time>
      </trkpt>
      <trkpt lat="47.05649" lon="6.62677">
        <ele>791.3</ele>
        <time>2019-08-21T20:32:55Z</time>
      </trkpt>
      <trkpt lat="47.05588" lon="6.62644">
        <ele>788.7</ele>
        <time>2019-08-21T20:33:00Z</time>
      </trkpt>
      <trkpt lat="47.05524" lon="6.6263">
        <ele>789.1</ele>
        <time>2019-08-21T20:33:13Z</time>
      </trkpt>
      <trkpt lat="47.05489" lon="6.62615">
        <ele>789.8</ele>
        <time>2019-08-21T20:33:45Z</time>
      </trkpt>
      <trkpt lat="47.05464" lon="6.62619">
        <ele>790.9</ele>
        <time>2019-08-21T20:33:51Z</time>
      </trkpt>
      <trkpt lat="47.05454" lon="6.62625">
        <ele>791.7</ele>
        <time>2019-08-21T20:34:09Z</time>
      </trkpt>
      <trkpt lat="47.05418" lon="6.62674">
        <ele>788.1</ele>
        <time>2019-08-21T20:37:36Z</time>
      </trkpt>
      <trkpt lat="47.05412" lon="6.62732">
        <ele>797.3</ele>
        <time>2019-08-21T20:39:44Z</time>
      </trkpt>
      <trkpt lat="47.05395" lon="6.62786">
        <ele>800</ele>
        <time>2019-08-21T20:40:01Z</time>
      </trkpt>
      <trkpt lat="47.05384" lon="6.62816">
        <ele>801.2</ele>
        <time>2019-08-21T20:40:14Z</time>
      </trkpt>
      <trkpt lat="47.05363" lon="6.62837">
        <ele>822.6</ele>
        <time>2019-08-21T20:40:41Z</time>
      </trkpt>
      <trkpt lat="47.05334" lon="6.62811">
        <ele>808.4</ele>
        <time>2019-08-21T20:40:44Z</time>
      </trkpt>
      <trkpt lat="47.05283" lon="6.6278">
        <ele>801.2</ele>
        <time>2019-08-21T20:40:58Z</time>
      </trkpt>
      <trkpt lat="47.05204" lon="6.62739">
        <ele>801.8</ele>
        <time>2019-08-21T20:41:32Z</time>
      </trkpt>
      <trkpt lat="47.05114" lon="6.62728">
        <ele>805.7</ele>
        <time>2019-08-21T20:41:49Z</time>
      </trkpt>
      <trkpt lat="47.05079" lon="6.62731">
        <ele>807.6</ele>
        <time>2019-08-21T20:42:09Z</time>
      </trkpt>
      <trkpt lat="47.05062" lon="6.62742">
        <ele>808.9</ele>
        <time>2019-08-21T20:42:10Z</time>
      </trkpt>
      <trkpt lat="47.05004" lon="6.62777">
        <ele>812.5</ele>
        <time>2019-08-21T20:42:45Z</time>
      </trkpt>
      <trkpt lat="47.04932" lon="6.62808">
        <ele>814.6</ele>
        <time>2019-08-21T20:42:58Z</time>
      </trkpt>
      <trkpt lat="47.0488" lon="6.62857">
        <ele>815.3</ele>
        <time>2019-08-21T20:43:10Z</time>
      </trkpt>
      <trkpt lat="47.04836" lon="6.6291">
        <ele>816.2</ele>
        <time>2019-08-21T20:43:21Z</time>
      </trkpt>
      <trkpt lat="47.0475" lon="6.63015">
        <ele>820.4</ele>
        <time>2019-08-21T20:43:44Z</time>
      </trkpt>
      <trkpt lat="47.04719" lon="6.6312">
        <ele>825.2</ele>
        <time>2019-08-21T20:44:18Z</time>
      </trkpt>
      <trkpt lat="47.04705" lon="6.63269">
        <ele>829.4</ele>
        <time>2019-08-21T20:44:40Z</time>
      </trkpt>
      <trkpt lat="47.04739" lon="6.63331">
        <ele>833.5</ele>
        <time>2019-08-21T20:44:58Z</time>
      </trkpt>
      <trkpt lat="47.04752" lon="6.63352">
        <ele>836</ele>
        <time>2019-08-21T20:45:01Z</time>
      </trkpt>
      <trkpt lat="47.04783" lon="6.63402">
        <ele>839.8</ele>
        <time>2019-08-21T20:45:10Z</time>
      </trkpt>
      <trkpt lat="47.04798" lon="6.63422">
        <ele>842.1</ele>
        <time>2019-08-21T20:45:13Z</time>
      </trkpt>
      <trkpt lat="47.04843" lon="6.63491">
        <ele>849.6</ele>
        <time>2019-08-21T20:45:21Z</time>
      </trkpt>
      <trkpt lat="47.04848" lon="6.63499">
        <ele>850.3</ele>
        <time>2019-08-21T20:45:40Z</time>
      </trkpt>
      <trkpt lat="47.0487" lon="6.63524">
        <ele>853.4</ele>
        <time>2019-08-21T20:46:08Z</time>
      </trkpt>
      <trkpt lat="47.04919" lon="6.6358">
        <ele>862.3</ele>
        <time>2019-08-21T20:46:19Z</time>
      </trkpt>
      <trkpt lat="47.04928" lon="6.63594">
        <ele>863.9</ele>
        <time>2019-08-21T20:46:56Z</time>
      </trkpt>
      <trkpt lat="47.04979" lon="6.63668">
        <ele>872.9</ele>
        <time>2019-08-21T20:47:08Z</time>
      </trkpt>
      <trkpt lat="47.0498" lon="6.6367">
        <ele>873.1</ele>
        <time>2019-08-21T20:47:13Z</time>
      </trkpt>
      <trkpt lat="47.04984" lon="6.63676">
        <ele>873.6</ele>
        <time>2019-08-21T20:47:29Z</time>
      </trkpt>
      <trkpt lat="47.04993" lon="6.63695">
        <ele>874.8</ele>
        <time>2019-08-21T20:47:49Z</time>
      </trkpt>
      <trkpt lat="47.05013" lon="6.63745">
        <ele>876.5</ele>
        <time>2019-08-21T20:47:53Z</time>
      </trkpt>
      <trkpt lat="47.05033" lon="6.63822">
        <ele>878.8</ele>
        <time>2019-08-21T20:47:54Z</time>
      </trkpt>
      <trkpt lat="47.05059" lon="6.63905">
        <ele>882.8</ele>
        <time>2019-08-21T20:48:21Z</time>
      </trkpt>
      <trkpt lat="47.05102" lon="6.63987">
        <ele>886.5</ele>
        <time>2019-08-21T20:49:00Z</time>
      </trkpt>
      <trkpt lat="47.05164" lon="6.64102">
        <ele>889.5</ele>
        <time>2019-08-21T20:49:49Z</time>
      </trkpt>
      <trkpt lat="47.05197" lon="6.64175">
        <ele>888.5</ele>
        <time>2019-08-21T20:51:02Z</time>
      </trkpt>
      <trkpt lat="47.05211" lon="6.64195">
        <ele>888.1</ele>
        <time>2019-08-21T20:51:23Z</time>
      </trkpt>
      <trkpt lat="47.0526" lon="6.64279">
        <ele>883.6</ele>
        <time>2019-08-21T20:51:37Z</time>
      </trkpt>
      <trkpt lat="47.05304" lon="6.64369">
        <ele>873.6</ele>
        <time>2019-08-21T20:51:53Z</time>
      </trkpt>
      <trkpt lat="47.0532" lon="6.64398">
        <ele>864.6</ele>
        <time>2019-08-21T20:52:15Z</time>
      </trkpt>
      <trkpt lat="47.0534" lon="6.64422">
        <ele>876.9</ele>
        <time>2019-08-21T20:52:29Z</time>
      </trkpt>
      <trkpt lat="47.05362" lon="6.64433">
        <ele>879.6</ele>
        <time>2019-08-21T20:53:24Z</time>
      </trkpt>
      <trkpt lat="47.05376" lon="6.64443">
        <ele>880.4</ele>
        <time>2019-08-21T20:53:26Z</time>
      </trkpt>
      <trkpt lat="47.05414" lon="6.64474">
        <ele>884.5</ele>
        <time>2019-08-21T20:54:06Z</time>
      </trkpt>
      <trkpt lat="47.0546" lon="6.64553">
        <ele>897.4</ele>
        <time>2019-08-21T20:54:21Z</time>
      </trkpt>
      <trkpt lat="47.05502" lon="6.64659">
        <ele>904.1</ele>
        <time>2019-08-21T20:54:36Z</time>
      </trkpt>
      <trkpt lat="47.0553" lon="6.64706">
        <ele>901.5</ele>
        <time>2019-08-21T20:54:41Z</time>
      </trkpt>
      <trkpt lat="47.05565" lon="6.64751">
        <ele>889.3</ele>
        <time>2019-08-21T20:57:10Z</time>
      </trkpt>
      <trkpt lat="47.05587" lon="6.64772">
        <ele>890.8</ele>
        <time>2019-08-21T20:57:13Z</time>
      </trkpt>
      <trkpt lat="47.05608" lon="6.64785">
        <ele>907.5</ele>
        <time>2019-08-21T20:57:17Z</time>
      </trkpt>
      <trkpt lat="47.05654" lon="6.64777">
        <ele>913.3</ele>
        <time>2019-08-21T20:57:29Z</time>
      </trkpt>
      <trkpt lat="47.05679" lon="6.64798">
        <ele>904.7</ele>
        <time>2019-08-21T20:57:38Z</time>
      </trkpt>
      <trkpt lat="47.05713" lon="6.648">
        <ele>921.2</ele>
        <time>2019-08-21T20:57:44Z</time>
      </trkpt>
      <trkpt lat="47.05739" lon="6.6478">
        <ele>926.9</ele>
        <time>2019-08-21T20:57:50Z</time>
      </trkpt>
      <trkpt lat="47.05738" lon="6.64715">
        <ele>933.2</ele>
        <time>2019-08-21T20:58:01Z</time>
      </trkpt>
      <trkpt lat="47.05716" lon="6.64686">
        <ele>923.9</ele>
        <time>2019-08-21T20:58:15Z</time>
      </trkpt>
      <trkpt lat="47.05685" lon="6.64673">
        <ele>932.4</ele>
        <time>2019-08-21T20:58:22Z</time>
      </trkpt>
      <trkpt lat="47.0566" lon="6.64669">
        <ele>929.5</ele>
        <time>2019-08-21T20:58:35Z</time>
      </trkpt>
      <trkpt lat="47.05641" lon="6.6466">
        <ele>931.4</ele>
        <time>2019-08-21T20:58:51Z</time>
      </trkpt>
      <trkpt lat="47.05628" lon="6.64631">
        <ele>931.8</ele>
        <time>2019-08-21T20:58:57Z</time>
      </trkpt>
      <trkpt lat="47.05612" lon="6.64553">
        <ele>938.3</ele>
        <time>2019-08-21T20:59:02Z</time>
      </trkpt>
      <trkpt lat="47.0562" lon="6.64451">
        <ele>940.2</ele>
        <time>2019-08-21T20:59:06Z</time>
      </trkpt>
      <trkpt lat="47.0561" lon="6.64387">
        <ele>936.4</ele>
        <time>2019-08-21T20:59:12Z</time>
      </trkpt>
      <trkpt lat="47.05611" lon="6.64346">
        <ele>931.2</ele>
        <time>2019-08-21T20:59:20Z</time>
      </trkpt>
      <trkpt lat="47.05635" lon="6.64343">
        <ele>934.2</ele>
        <time>2019-08-21T20:59:31Z</time>
      </trkpt>
      <trkpt lat="47.05674" lon="6.64359">
        <ele>937.6</ele>
        <time>2019-08-21T20:59:34Z</time>
      </trkpt>
      <trkpt lat="47.05704" lon="6.64372">
        <ele>940.2</ele>
        <time>2019-08-21T20:59:42Z</time>
      </trkpt>
      <trkpt lat="47.05734" lon="6.64369">
        <ele>929.7</ele>
        <time>2019-08-21T21:00:10Z</time>
      </trkpt>
      <trkpt lat="47.05765" lon="6.64356">
        <ele>945.1</ele>
        <time>2019-08-21T21:00:15Z</time>
      </trkpt>
      <trkpt lat="47.05771" lon="6.64353">
        <ele>945.5</ele>
        <time>2019-08-21T21:00:35Z</time>
      </trkpt>
      <trkpt lat="47.05797" lon="6.64341">
        <ele>947.2</ele>
        <time>2019-08-21T21:00:47Z</time>
      </trkpt>
      <trkpt lat="47.05855" lon="6.64297">
        <ele>950.3</ele>
        <time>2019-08-21T21:00:52Z</time>
      </trkpt>
      <trkpt lat="47.05877" lon="6.64283">
        <ele>952.2</ele>
        <time>2019-08-21T21:00:56Z</time>
      </trkpt>
      <trkpt lat="47.05897" lon="6.64277">
        <ele>954.4</ele>
        <time>2019-08-21T21:01:20Z</time>
      </trkpt>
      <trkpt lat="47.05898" lon="6.64276">
        <ele>954.6</ele>
        <time>2019-08-21T21:01:43Z</time>
      </trkpt>
      <trkpt lat="47.05959" lon="6.64234">
        <ele>957.7</ele>
        <time>2019-08-21T21:02:00Z</time>
      </trkpt>
      <trkpt lat="47.05974" lon="6.64212">
        <ele>958</ele>
        <time>2019-08-21T21:02:08Z</time>
      </trkpt>
      <trkpt lat="47.05991" lon="6.64234">
        <ele>960.9</ele>
        <time>2019-08-21T21:02:27Z</time>
      </trkpt>
      <trkpt lat="47.06" lon="6.64274">
        <ele>963.1</ele>
        <time>2019-08-21T21:02:34Z</time>
      </trkpt>
      <trkpt lat="47.06014" lon="6.64328">
        <ele>964.9</ele>
        <time>2019-08-21T21:02:52Z</time>
      </trkpt>
      <trkpt lat="47.06048" lon="6.64405">
        <ele>965.8</ele>
        <time>2019-08-21T21:03:08Z</time>
      </trkpt>
      <trkpt lat="47.06072" lon="6.64479">
        <ele>965.5</ele>
        <time>2019-08-21T21:03:21Z</time>
      </trkpt>
      <trkpt lat="47.06113" lon="6.64545">
        <ele>965.6</ele>
        <time>2019-08-21T21:03:30Z</time>
      </trkpt>
      <trkpt lat="47.06121" lon="6.64556">
        <ele>966</ele>
        <time>2019-08-21T21:03:51Z</time>
      </trkpt>
      <trkpt lat="47.06144" lon="6.64591">
        <ele>966.9</ele>
        <time>2019-08-21T21:03:56Z</time>
      </trkpt>
      <trkpt lat="47.06151" lon="6.64601">
        <ele>967.1</ele>
        <time>2019-08-21T21:04:04Z</time>
      </trkpt>
      <trkpt lat="47.06166" lon="6.64621">
        <ele>967.6</ele>
        <time>2019-08-21T21:04:28Z</time>
      </trkpt>
      <trkpt lat="47.06218" lon="6.64643">
        <ele>968.1</ele>
        <time>2019-08-21T21:04:31Z</time>
      </trkpt>
      <trkpt lat="47.06262" lon="6.64573">
        <ele>967.2</ele>
        <time>2019-08-21T21:04:32Z</time>
      </trkpt>
      <trkpt lat="47.06264" lon="6.64576">
        <ele>967.2</ele>
        <time>2019-08-21T21:04:34Z</time>
      </trkpt>
      <trkpt lat="47.06349" lon="6.64678">
        <ele>974</ele>
        <time>2019-08-21T21:04:47Z</time>
      </trkpt>
      <trkpt lat="47.06372" lon="6.64702">
        <ele>976.9</ele>
        <time>2019-08-21T21:05:59Z</time>
      </trkpt>
      <trkpt lat="47.06381" lon="6.64711">
        <ele>977.8</ele>
        <time>2019-08-21T21:10:39Z</time>
      </trkpt>
      <trkpt lat="47.06413" lon="6.6473">
        <ele>980.6</ele>
        <time>2019-08-21T21:11:38Z</time>
      </trkpt>
      <trkpt lat="47.06451" lon="6.64755">
        <ele>986</ele>
        <time>2019-08-21T21:11:51Z</time>
      </trkpt>
      <trkpt lat="47.06459" lon="6.64761">
        <ele>987.3</ele>
        <time>2019-08-21T21:12:11Z</time>
      </trkpt>
      <trkpt lat="47.06461" lon="6.64762">
        <ele>987.6</ele>
        <time>2019-08-21T21:12:23Z</time>
      </trkpt>
      <trkpt lat="47.06516" lon="6.64793">
        <ele>992.8</ele>
        <time>2019-08-21T21:12:28Z</time>
      </trkpt>
      <trkpt lat="47.06545" lon="6.64825">
        <ele>995.2</ele>
        <time>2019-08-21T21:12:32Z</time>
      </trkpt>
      <trkpt lat="47.06577" lon="6.64899">
        <ele>997.2</ele>
        <time>2019-08-21T21:12:36Z</time>
      </trkpt>
      <trkpt lat="47.06595" lon="6.64927">
        <ele>992</ele>
        <time>2019-08-21T21:12:40Z</time>
      </trkpt>
      <trkpt lat="47.06619" lon="6.64941">
        <ele>997.6</ele>
        <time>2019-08-21T21:12:48Z</time>
      </trkpt>
      <trkpt lat="47.06666" lon="6.64974">
        <ele>1001</ele>
        <time>2019-08-21T21:13:01Z</time>
      </trkpt>
      <trkpt lat="47.06708" lon="6.65029">
        <ele>1001.2</ele>
        <time>2019-08-21T21:13:11Z</time>
      </trkpt>
      <trkpt lat="47.06751" lon="6.65088">
        <ele>1001.7</ele>
        <time>2019-08-21T21:13:17Z</time>
      </trkpt>
      <trkpt lat="47.06817" lon="6.65169">
        <ele>1011.6</ele>
        <time>2019-08-21T21:13:27Z</time>
      </trkpt>
      <trkpt lat="47.06861" lon="6.65216">
        <ele>1009.7</ele>
        <time>2019-08-21T21:14:05Z</time>
      </trkpt>
      <trkpt lat="47.06894" lon="6.65249">
        <ele>1008.6</ele>
        <time>2019-08-21T21:14:13Z</time>
      </trkpt>
      <trkpt lat="47.06934" lon="6.65296">
        <ele>1007.2</ele>
        <time>2019-08-21T21:14:23Z</time>
      </trkpt>
      <trkpt lat="47.06992" lon="6.65374">
        <ele>1005.7</ele>
        <time>2019-08-21T21:14:32Z</time>
      </trkpt>
      <trkpt lat="47.07036" lon="6.65448">
        <ele>1011.9</ele>
        <time>2019-08-21T21:14:52Z</time>
      </trkpt>
      <trkpt lat="47.07061" lon="6.65471">
        <ele>1008.2</ele>
        <time>2019-08-21T21:15:04Z</time>
      </trkpt>
      <trkpt lat="47.07093" lon="6.65495">
        <ele>1012</ele>
        <time>2019-08-21T21:15:06Z</time>
      </trkpt>
      <trkpt lat="47.0713" lon="6.65522">
        <ele>1013.8</ele>
        <time>2019-08-21T21:15:13Z</time>
      </trkpt>
      <trkpt lat="47.07151" lon="6.65531">
        <ele>1017.7</ele>
        <time>2019-08-21T21:15:17Z</time>
      </trkpt>
      <trkpt lat="47.07171" lon="6.65521">
        <ele>1024.5</ele>
        <time>2019-08-21T21:15:25Z</time>
      </trkpt>
      <trkpt lat="47.07176" lon="6.65518">
        <ele>1025</ele>
        <time>2019-08-21T21:15:27Z</time>
      </trkpt>
      <trkpt lat="47.07199" lon="6.65449">
        <ele>1024.4</ele>
        <time>2019-08-21T21:15:36Z</time>
      </trkpt>
      <trkpt lat="47.07242" lon="6.65395">
        <ele>1030.1</ele>
        <time>2019-08-21T21:15:40Z</time>
      </trkpt>
      <trkpt lat="47.07277" lon="6.65344">
        <ele>1031.2</ele>
        <time>2019-08-21T21:15:48Z</time>
      </trkpt>
      <trkpt lat="47.0731" lon="6.65291">
        <ele>1034.3</ele>
        <time>2019-08-21T21:16:01Z</time>
      </trkpt>
      <trkpt lat="47.07322" lon="6.65275">
        <ele>1035.3</ele>
        <time>2019-08-21T21:16:06Z</time>
      </trkpt>
      <trkpt lat="47.07341" lon="6.65253">
        <ele>1032.4</ele>
        <time>2019-08-21T21:16:11Z</time>
      </trkpt>
      <trkpt lat="47.0737" lon="6.65245">
        <ele>1036.6</ele>
        <time>2019-08-21T21:16:15Z</time>
      </trkpt>
      <trkpt lat="47.07397" lon="6.65255">
        <ele>1036.6</ele>
        <time>2019-08-21T21:16:19Z</time>
      </trkpt>
      <trkpt lat="47.07428" lon="6.65335">
        <ele>1046.4</ele>
        <time>2019-08-21T21:16:24Z</time>
      </trkpt>
      <trkpt lat="47.07459" lon="6.65447">
        <ele>1046.7</ele>
        <time>2019-08-21T21:16:29Z</time>
      </trkpt>
      <trkpt lat="47.0748" lon="6.65516">
        <ele>1046.7</ele>
        <time>2019-08-21T21:16:33Z</time>
      </trkpt>
      <trkpt lat="47.07493" lon="6.65552">
        <ele>1046.1</ele>
        <time>2019-08-21T21:16:40Z</time>
      </trkpt>
      <trkpt lat="47.07545" lon="6.65657">
        <ele>1052.8</ele>
        <time>2019-08-21T21:17:01Z</time>
      </trkpt>
      <trkpt lat="47.0755" lon="6.65667">
        <ele>1049.6</ele>
        <time>2019-08-21T21:17:08Z</time>
      </trkpt>
      <trkpt lat="47.07524" lon="6.65699">
        <ele>1048</ele>
        <time>2019-08-21T21:17:24Z</time>
      </trkpt>
      <trkpt lat="47.07511" lon="6.65698">
        <ele>1046.4</ele>
        <time>2019-08-21T21:17:59Z</time>
      </trkpt>
      <trkpt lat="47.07493" lon="6.65711">
        <ele>1043.8</ele>
        <time>2019-08-21T21:18:21Z</time>
      </trkpt>
      <trkpt lat="47.07469" lon="6.65776">
        <ele>1040</ele>
        <time>2019-08-21T21:18:41Z</time>
      </trkpt>
      <trkpt lat="47.07474" lon="6.65848">
        <ele>1037.5</ele>
        <time>2019-08-21T21:18:52Z</time>
      </trkpt>
      <trkpt lat="47.07483" lon="6.65887">
        <ele>1037</ele>
        <time>2019-08-21T21:18:54Z</time>
      </trkpt>
      <trkpt lat="47.07474" lon="6.65926">
        <ele>1036.5</ele>
        <time>2019-08-21T21:19:00Z</time>
      </trkpt>
      <trkpt lat="47.07479" lon="6.66034">
        <ele>1032</ele>
        <time>2019-08-21T21:19:03Z</time>
      </trkpt>
      <trkpt lat="47.07504" lon="6.66207">
        <ele>1021.2</ele>
        <time>2019-08-21T21:19:07Z</time>
      </trkpt>
      <trkpt lat="47.07507" lon="6.6629">
        <ele>1018</ele>
        <time>2019-08-21T21:19:09Z</time>
      </trkpt>
      <trkpt lat="47.07515" lon="6.66464">
        <ele>1008.8</ele>
        <time>2019-08-21T21:19:23Z</time>
      </trkpt>
      <trkpt lat="47.07541" lon="6.66532">
        <ele>1008.8</ele>
        <time>2019-08-21T21:19:28Z</time>
      </trkpt>
      <trkpt lat="47.07555" lon="6.66549">
        <ele>1012.3</ele>
        <time>2019-08-21T21:19:40Z</time>
      </trkpt>
      <trkpt lat="47.07563" lon="6.66559">
        <ele>1014.2</ele>
        <time>2019-08-21T21:19:48Z</time>
      </trkpt>
      <trkpt lat="47.07571" lon="6.66565">
        <ele>1015.6</ele>
        <time>2019-08-21T21:19:50Z</time>
      </trkpt>
      <trkpt lat="47.07585" lon="6.66572">
        <ele>1018.6</ele>
        <time>2019-08-21T21:20:10Z</time>
      </trkpt>
      <trkpt lat="47.07598" lon="6.66575">
        <ele>1022.1</ele>
        <time>2019-08-21T21:20:16Z</time>
      </trkpt>
      <trkpt lat="47.07615" lon="6.66575">
        <ele>1026.2</ele>
        <time>2019-08-21T21:20:18Z</time>
      </trkpt>
      <trkpt lat="47.07621" lon="6.66578">
        <ele>1027.7</ele>
        <time>2019-08-21T21:20:20Z</time>
      </trkpt>
      <trkpt lat="47.07633" lon="6.66583">
        <ele>1030</ele>
        <time>2019-08-21T21:20:22Z</time>
      </trkpt>
      <trkpt lat="47.0768" lon="6.66595">
        <ele>1031.5</ele>
        <time>2019-08-21T21:20:27Z</time>
      </trkpt>
      <trkpt lat="47.07688" lon="6.66599">
        <ele>1031.8</ele>
        <time>2019-08-21T21:20:35Z</time>
      </trkpt>
      <trkpt lat="47.07721" lon="6.66616">
        <ele>1033.5</ele>
        <time>2019-08-21T21:20:46Z</time>
      </trkpt>
      <trkpt lat="47.07738" lon="6.66625">
        <ele>1034.9</ele>
        <time>2019-08-21T21:20:49Z</time>
      </trkpt>
      <trkpt lat="47.07745" lon="6.66629">
        <ele>1035.5</ele>
      </trkpt>
      <trkpt lat="47.0775" lon="6.66634">
        <ele>1035.9</ele>
      </trkpt>
      <trkpt lat="47.07779" lon="6.6666">
        <ele>1038.3</ele>
      </trkpt>
      <trkpt lat="47.07803" lon="6.66668">
        <ele>1040.1</ele>
      </trkpt>
      <trkpt lat="47.07804" lon="6.66645">
        <ele>1041.2</ele>
      </trkpt>
      <trkpt lat="47.0781" lon="6.66624">
        <ele>1042.9</ele>
      </trkpt>
      <trkpt lat="47.07822" lon="6.66589">
        <ele>1046.6</ele>
      </trkpt>
      <trkpt lat="47.07829" lon="6.66579">
        <ele>1047.9</ele>
      </trkpt>
      <trkpt lat="47.07853" lon="6.66558">
        <ele>1050.1</ele>
      </trkpt>
      <trkpt lat="47.07874" lon="6.66531">
        <ele>1051.2</ele>
      </trkpt>
      <trkpt lat="47.07895" lon="6.66505">
        <ele>1052.1</ele>
      </trkpt>
      <trkpt lat="47.07909" lon="6.66485">
        <ele>1052.5</ele>
      </trkpt>
      <trkpt lat="47.07952" lon="6.66435">
        <ele>1051.4</ele>
      </trkpt>
      <trkpt lat="47.07976" lon="6.66431">
        <ele>1049.7</ele>
      </trkpt>
      <trkpt lat="47.08007" lon="6.66394">
        <ele>1047.3</ele>
      </trkpt>
      <trkpt lat="47.08073" lon="6.66283">
        <ele>1046.3</ele>
      </trkpt>
      <trkpt lat="47.0808" lon="6.66271">
        <ele>1046.3</ele>
      </trkpt>
      <trkpt lat="47.08082" lon="6.66267">
        <ele>1046.3</ele>
      </trkpt>
      <trkpt lat="47.08086" lon="6.6626">
        <ele>1046.4</ele>
      </trkpt>
      <trkpt lat="47.08105" lon="6.66207">
        <ele>1046.8</ele>
      </trkpt>
      <trkpt lat="47.08128" lon="6.66146">
        <ele>1047.5</ele>
      </trkpt>
      <trkpt lat="47.08124" lon="6.66126">
        <ele>1047.5</ele>
      </trkpt>
      <trkpt lat="47.08117" lon="6.6611">
        <ele>1047.4</ele>
      </trkpt>
      <trkpt lat="47.0809" lon="6.66092">
        <ele>1047.2</ele>
      </trkpt>
      <trkpt lat="47.08036" lon="6.66048">
        <ele>1046.9</ele>
      </trkpt>
      <trkpt lat="47.08001" lon="6.66015">
        <ele>1046</ele>
      </trkpt>
      <trkpt lat="47.07965" lon="6.65974">
        <ele>1050.1</ele>
      </trkpt>
      <trkpt lat="47.0791" lon="6.65959">
        <ele>1053.7</ele>
      </trkpt>
      <trkpt lat="47.07874" lon="6.6596">
        <ele>1054</ele>
      </trkpt>
      <trkpt lat="47.07839" lon="6.65956">
        <ele>1054.3</ele>
      </trkpt>
      <trkpt lat="47.07803" lon="6.65927">
        <ele>1053.4</ele>
      </trkpt>
      <trkpt lat="47.07769" lon="6.65868">
        <ele>1055.1</ele>
      </trkpt>
      <trkpt lat="47.07746" lon="6.65829">
        <ele>1054.5</ele>
      </trkpt>
      <trkpt lat="47.07732" lon="6.65792">
        <ele>1053.5</ele>
      </trkpt>
      <trkpt lat="47.07702" lon="6.65736">
        <ele>1052.2</ele>
      </trkpt>
      <trkpt lat="47.07668" lon="6.65695">
        <ele>1053.5</ele>
      </trkpt>
      <trkpt lat="47.07579" lon="6.65679">
        <ele>1049.6</ele>
      </trkpt>
      <trkpt lat="47.07562" lon="6.65669">
        <ele>1050</ele>
      </trkpt>
      <trkpt lat="47.07542" lon="6.65642">
        <ele>1050.3</ele>
      </trkpt>
      <trkpt lat="47.07528" lon="6.6561">
        <ele>1050</ele>
      </trkpt>
      <trkpt lat="47.0754" lon="6.65594">
        <ele>1052.7</ele>
      </trkpt>
      <trkpt lat="47.07557" lon="6.65579">
        <ele>1054.6</ele>
      </trkpt>
      <trkpt lat="47.07577" lon="6.65561">
        <ele>1055.4</ele>
      </trkpt>
      <trkpt lat="47.07597" lon="6.6554">
        <ele>1057.3</ele>
      </trkpt>
      <trkpt lat="47.07643" lon="6.65501">
        <ele>1057.5</ele>
      </trkpt>
      <trkpt lat="47.07663" lon="6.65487">
        <ele>1057.7</ele>
      </trkpt>
      <trkpt lat="47.07698" lon="6.65476">
        <ele>1057.3</ele>
      </trkpt>
      <trkpt lat="47.07722" lon="6.65478">
        <ele>1057.5</ele>
      </trkpt>
      <trkpt lat="47.07739" lon="6.65473">
        <ele>1057.5</ele>
      </trkpt>
      <trkpt lat="47.07746" lon="6.6547">
        <ele>1057.3</ele>
      </trkpt>
      <trkpt lat="47.07755" lon="6.65459">
        <ele>1055.1</ele>
      </trkpt>
      <trkpt lat="47.07762" lon="6.65449">
        <ele>1054.2</ele>
      </trkpt>
      <trkpt lat="47.07768" lon="6.6544">
        <ele>1053.5</ele>
      </trkpt>
      <trkpt lat="47.07777" lon="6.65435">
        <ele>1053.9</ele>
      </trkpt>
      <trkpt lat="47.07786" lon="6.6543">
        <ele>1053.3</ele>
      </trkpt>
      <trkpt lat="47.0783" lon="6.65426">
        <ele>1051.5</ele>
      </trkpt>
      <trkpt lat="47.07861" lon="6.65302">
        <ele>1043.7</ele>
      </trkpt>
      <trkpt lat="47.07872" lon="6.6526">
        <ele>1042.8</ele>
      </trkpt>
      <trkpt lat="47.07884" lon="6.65252">
        <ele>1042.3</ele>
      </trkpt>
      <trkpt lat="47.07901" lon="6.65242">
        <ele>1040.8</ele>
      </trkpt>
      <trkpt lat="47.07978" lon="6.65217">
        <ele>1041.4</ele>
      </trkpt>
      <trkpt lat="47.07998" lon="6.6521">
        <ele>1041.7</ele>
      </trkpt>
      <trkpt lat="47.08014" lon="6.65208">
        <ele>1044</ele>
      </trkpt>
      <trkpt lat="47.08019" lon="6.65203">
        <ele>1044</ele>
      </trkpt>
      <trkpt lat="47.08069" lon="6.65128">
        <ele>1038.1</ele>
      </trkpt>
      <trkpt lat="47.08064" lon="6.65063">
        <ele>1028.1</ele>
      </trkpt>
      <trkpt lat="47.08082" lon="6.65052">
        <ele>1025.8</ele>
      </trkpt>
      <trkpt lat="47.08103" lon="6.65057">
        <ele>1025.7</ele>
      </trkpt>
      <trkpt lat="47.08128" lon="6.65052">
        <ele>1023.6</ele>
      </trkpt>
      <trkpt lat="47.08147" lon="6.65034">
        <ele>1020</ele>
      </trkpt>
      <trkpt lat="47.08168" lon="6.64976">
        <ele>1008.9</ele>
      </trkpt>
      <trkpt lat="47.08181" lon="6.64849">
        <ele>991.3</ele>
      </trkpt>
      <trkpt lat="47.08186" lon="6.64764">
        <ele>985.9</ele>
      </trkpt>
      <trkpt lat="47.08187" lon="6.64711">
        <ele>981.7</ele>
      </trkpt>
      <trkpt lat="47.08193" lon="6.64652">
        <ele>975.3</ele>
      </trkpt>
      <trkpt lat="47.08183" lon="6.64616">
        <ele>969.7</ele>
      </trkpt>
      <trkpt lat="47.08154" lon="6.64548">
        <ele>960</ele>
      </trkpt>
      <trkpt lat="47.08125" lon="6.64467">
        <ele>949.1</ele>
      </trkpt>
      <trkpt lat="47.08111" lon="6.64433">
        <ele>945.1</ele>
      </trkpt>
      <trkpt lat="47.08111" lon="6.64429">
        <ele>944.6</ele>
      </trkpt>
      <trkpt lat="47.08121" lon="6.64368">
        <ele>937.7</ele>
      </trkpt>
      <trkpt lat="47.08126" lon="6.64351">
        <ele>936.3</ele>
      </trkpt>
      <trkpt lat="47.0814" lon="6.64279">
        <ele>930.8</ele>
      </trkpt>
      <trkpt lat="47.08158" lon="6.64257">
        <ele>929.1</ele>
      </trkpt>
      <trkpt lat="47.08175" lon="6.64202">
        <ele>925.6</ele>
      </trkpt>
      <trkpt lat="47.08171" lon="6.64189">
        <ele>924.8</ele>
      </trkpt>
      <trkpt lat="47.08129" lon="6.64121">
        <ele>919.6</ele>
      </trkpt>
      <trkpt lat="47.08128" lon="6.64076">
        <ele>917</ele>
      </trkpt>
      <trkpt lat="47.0818" lon="6.64003">
        <ele>913.1</ele>
      </trkpt>
      <trkpt lat="47.08267" lon="6.63951">
        <ele>913.6</ele>
      </trkpt>
      <trkpt lat="47.08299" lon="6.63938">
        <ele>914.1</ele>
      </trkpt>
      <trkpt lat="47.08325" lon="6.63921">
        <ele>914.3</ele>
      </trkpt>
      <trkpt lat="47.08337" lon="6.63898">
        <ele>914.1</ele>
      </trkpt>
      <trkpt lat="47.0834" lon="6.63871">
        <ele>913.4</ele>
      </trkpt>
      <trkpt lat="47.08338" lon="6.63831">
        <ele>911.4</ele>
      </trkpt>
      <trkpt lat="47.08345" lon="6.63787">
        <ele>908.8</ele>
      </trkpt>
      <trkpt lat="47.08365" lon="6.63758">
        <ele>908.4</ele>
      </trkpt>
      <trkpt lat="47.08407" lon="6.63743">
        <ele>907.9</ele>
      </trkpt>
      <trkpt lat="47.08468" lon="6.63742">
        <ele>907.9</ele>
      </trkpt>
      <trkpt lat="47.08489" lon="6.63759">
        <ele>907.6</ele>
      </trkpt>
      <trkpt lat="47.08532" lon="6.63686">
        <ele>908.7</ele>
      </trkpt>
      <trkpt lat="47.08586" lon="6.63544">
        <ele>915.4</ele>
      </trkpt>
      <trkpt lat="47.08577" lon="6.63464">
        <ele>919.8</ele>
      </trkpt>
      <trkpt lat="47.08567" lon="6.63384">
        <ele>922</ele>
      </trkpt>
      <trkpt lat="47.08567" lon="6.63347">
        <ele>925.6</ele>
      </trkpt>
      <trkpt lat="47.08567" lon="6.63341">
        <ele>926.2</ele>
      </trkpt>
      <trkpt lat="47.08568" lon="6.63321">
        <ele>928</ele>
      </trkpt>
      <trkpt lat="47.08568" lon="6.63311">
        <ele>928.7</ele>
      </trkpt>
      <trkpt lat="47.08569" lon="6.63298">
        <ele>929.6</ele>
      </trkpt>
      <trkpt lat="47.08569" lon="6.63291">
        <ele>930.1</ele>
      </trkpt>
      <trkpt lat="47.08562" lon="6.63245">
        <ele>932.9</ele>
      </trkpt>
      <trkpt lat="47.08561" lon="6.63228">
        <ele>933.9</ele>
      </trkpt>
      <trkpt lat="47.0854" lon="6.63192">
        <ele>934.5</ele>
      </trkpt>
      <trkpt lat="47.0852" lon="6.63157">
        <ele>934.3</ele>
      </trkpt>
      <trkpt lat="47.08514" lon="6.63147">
        <ele>934.2</ele>
      </trkpt>
      <trkpt lat="47.08454" lon="6.63038">
        <ele>932.4</ele>
      </trkpt>
      <trkpt lat="47.08436" lon="6.63008">
        <ele>931.2</ele>
      </trkpt>
      <trkpt lat="47.08429" lon="6.62998">
        <ele>930.8</ele>
      </trkpt>
      <trkpt lat="47.08423" lon="6.6299">
        <ele>930</ele>
      </trkpt>
      <trkpt lat="47.08417" lon="6.62979">
        <ele>929.6</ele>
      </trkpt>
      <trkpt lat="47.08411" lon="6.62946">
        <ele>929.8</ele>
      </trkpt>
      <trkpt lat="47.08411" lon="6.62894">
        <ele>933.4</ele>
      </trkpt>
      <trkpt lat="47.08415" lon="6.62827">
        <ele>936</ele>
      </trkpt>
      <trkpt lat="47.08414" lon="6.6281">
        <ele>936.5</ele>
      </trkpt>
      <trkpt lat="47.08403" lon="6.62798">
        <ele>933.8</ele>
      </trkpt>
      <trkpt lat="47.08386" lon="6.62777">
        <ele>933.8</ele>
      </trkpt>
      <trkpt lat="47.08376" lon="6.62763">
        <ele>935.8</ele>
      </trkpt>
      <trkpt lat="47.08369" lon="6.62746">
        <ele>936.1</ele>
      </trkpt>
      <trkpt lat="47.08381" lon="6.627">
        <ele>937.8</ele>
      </trkpt>
      <trkpt lat="47.08393" lon="6.62651">
        <ele>939.7</ele>
      </trkpt>
      <trkpt lat="47.08407" lon="6.62618">
        <ele>940.3</ele>
      </trkpt>
      <trkpt lat="47.08399" lon="6.62593">
        <ele>940.8</ele>
      </trkpt>
      <trkpt lat="47.08386" lon="6.62582">
        <ele>940.1</ele>
      </trkpt>
      <trkpt lat="47.08376" lon="6.62555">
        <ele>941.9</ele>
      </trkpt>
      <trkpt lat="47.08337" lon="6.62444">
        <ele>944.7</ele>
      </trkpt>
    </trkseg>
  </trk>
</gpx>